Regional Weather Roundup
Issued by NWS Charleston, SC

Current Version | Previous Version | Graphics & Text | Print | Product List | Glossary On
Versions: 1 2 3 4 5 6 7 8 9 10 11 12 13 14 15 16 17 18 19 20 21 22 23 24 25 26 27 28 29 30 31 32 33 34 35 36 37 38 39 40 41 42 43 44 45 46 47 48 49 50
000
ASUS42 KCHS 251512
RWRCHS

REGIONAL WEATHER ROUNDUP
NATIONAL WEATHER SERVICE CHARLESTON SC
1100 AM EDT TUE APR 25 2017

NOTE: "FAIR" INDICATES FEW OR NO CLOUDS BELOW 12,000 FEET WITH NO
SIGNIFICANT WEATHER AND/OR OBSTRUCTIONS TO VISIBILITY.

NOT ALL STATIONS ARE QUALITY CONTROLLED. USE DATA WITH CAUTION...
ESPECIALLY DEWPOINT OBSERVATIONS.

SCZ027-030-031-034>040-042>050-251600-
...SOUTHEAST SOUTH CAROLINA...

CITY           SKY/WX    TMP DP  RH WIND       PRES   REMARKS
N CHARLESTON   CLOUDY    63  56  78 W14       29.72R
WATERFRONT PRK   N/A     63  58  84 W6        29.70S
JOHNS ISLAND   CLOUDY    64  57  77 W14       29.73R
PINOPOLIS        N/A     61  57  88 W15       29.61F
MONCKS CORNER  CLOUDY    61  55  82 W6        29.72R
SUMMERVILLE    CLOUDY    61  57  88 W8        29.74R
BEAUFORT MCAS  PTSUNNY   66  58  75 W15       29.75S
BEAUFORT ARPT  CLOUDY    64  55  72 W13       29.75S
HILTON HEAD IS PTSUNNY   63  57  82 W14       29.76R
WALTERBORO     CLOUDY    61  55  82 NW9       29.75R
ALLENDALE      CLOUDY    64  57  77 VRB5G12   29.74S

...SOUTHERN MIDLANDS AND PEE DEE...

CITY           SKY/WX    TMP DP  RH WIND       PRES   REMARKS
GEORGETOWN     CLOUDY    59  59 100 W9        29.70R
KINGSTREE      CLOUDY    59  55  88 W12       29.70R
ORANGEBURG     PTSUNNY   65  56  72 NW12G18   29.73R
BARNWELL       CLOUDY    66  59  77 VRB7      29.74F
AIKEN          PTSUNNY   63  55  77 W12       29.77S
MANNING        CLOUDY    59  55  88 NW14      29.70S
COLUMBIA       PTSUNNY   67  55  65 NW9G20    29.71R
SUMTER         CLOUDY    60  57  89 NW9       29.68S
FLORENCE       CLOUDY    58  58 100 W8        29.69R FOG
MYRTLE BEACH   CLOUDY    61  57  88 W14       29.69R
N MYRTLE BEACH CLOUDY    61  60  97 W10       29.67R

$$

GAZ063-065-086>088-099>101-113>116-118-119-134>141-150-251600-
...SOUTHEAST GEORGIA...

CITY           SKY/WX    TMP DP  RH WIND       PRES   REMARKS
SAVANNAH ARPT  CLOUDY    64  54  69 NW14      29.78S
HUNTER AAF     CLOUDY    64  59  82 NW10      29.75S
FORT STEWART   SUNNY     69  55  62 NW12      29.76S
STATESBORO     PTSUNNY   67  56  66 NW7       29.77F
SYLVANIA       CLOUDY   N/A N/A N/A N8        29.77F
CLAXTON        FAIR      67  61  79 NW6       29.79S

...CSRA...CENTRAL AND FAR SOUTHEAST GEORGIA...

CITY           SKY/WX    TMP DP  RH WIND       PRES   REMARKS
THOMSON        PTSUNNY   68  58  69 NW10G16   29.80R
AUGUSTA-BUSH   MOSUNNY   71  58  63 VRB5      29.73F
AUGUSTA-DANIEL SUNNY     69  55  60 NW7       29.75S
SWAINSBORO     FAIR      70  57  64 SW7       29.77F
VIDALIA        SUNNY     70  57  64 NW9       29.78F
EASTMAN        FAIR      69  51  52 SW6       29.82S
HAZLEHURST     FAIR      71  60  68 N5        29.79S
ALMA           MOSUNNY   69  59  70 W8        29.81R
WAYCROSS       CLOUDY    73  62  67 NW7       29.80S
JESUP          FAIR      72  54  53 NW10      29.79S
BAXLEY         FAIR      70  61  73 N10       29.79S
BRUNSWICK      PTSUNNY   70  61  73 W9G16     29.79F
SAINT SIMONS   HVY RAIN  69  58  67 W10       29.78F

$$

SCZ027-028-034-036>038-045-046-048>050-GAZ119-141-251600-
...LAKE AND SUPPLEMENTAL COASTAL OBSERVATIONS...

STATION/POSITION TIME  TEMP    WIND        PRES    WAVE   SWELL
                       AIR SEA DIR/SP/G            HT/PER HT/PER/DIR
                 (UTC) (F)     (DEG/KT/KT) (MB)    (FT/S) (FT/S/D)
WINYAH BAY       1345   60     280/ 11     1004.0
LAKE MURRAY      1420   60     310/  5/ 12 1005.8
ACE BASIN NERRS  1345   59     260/  3     1007.0
FORT PULASKI     1448   62 74  310/ 15/ 18 1008.1S
SAPELO ISLAND    1400   64     290/ 10     1008.0

$$

ANZ835-935-AMZ111-154-330-350-352-354-370-450-454-472-251600-
...C-MAN AND BUOY OBSERVATIONS...

STATION/POSITION TIME  TEMP    WIND        PRES    WAVE   SWELL
                       AIR SEA DIR/SP/G            HT/PER HT/PER/DIR
                 (UTC) (F)     (DEG/KT/KT) (MB)    (FT/S) (FT/S/D)
BUOY 41004       1450   65 73  270/ 19/ 23 1005.8R   7/11   5/100/11
BUOY 41008       1350   64 71  280/ 17/ 21 1007.6    4/ 9   3/ 60/ 9
FOLLY BEACH CMAN 1400   62     270/  8/ 13 1006.6S
CAPERS NEARSHORE 1408   64 71  280/ 16/ 21 1005.3F
FRIPP NEARSHORE  1408   61 70  310/ 14/ 19 1007.1R


STATION/POSITION TIME  TEMP    WIND        PRES    WAVE   SWELL
                       AIR SEA DIR/SP/G            HT/PER HT/PER/DIR
                 (UTC) (F)     (DEG/KT/KT) (MB)    (FT/S) (FT/S/D)
5E ST. MARYS GA  1430      72                N/A     2/11   2/ 80/11
FRYING PAN BUOY  1450   67 74  250/ 21/ 25 1004.0R   7/10   5/110/10
BUOY 41025       1450   75 78  140/ 14/ 17 1003.3R  10/11  10/120/11
CAPE LOOKOUT NC  1400   68      20/  2/  2 1002.9R
BUOY 41002       1450   73 75  190/ 16/ 19 1006.9R   9/ 9   8/110/ 9
BUOY 41010       1450   71 78  260/ 14/ 19 1010.3R   7/ 6   3/110/ 8
ST AUGUSTINE FL  1500   71 72  270/  8/ 10 1010.7R


$$




USA.gov is the U.S. government's official web portal to all federal, state and local government web resources and services.